Regional Weather Roundup
Issued by NWS

Home | Current Version | Previous Version | Text Only | Print | Product List | Glossary Off
Versions: 1 2 3 4 5 6 7 8 9 10 11 12 13 14 15 16 17 18 19 20 21 22 23 24 25 26 27 28 29 30 31 32 33 34 35 36 37 38 39 40 41 42 43 44 45 46 47 48 49 50

000
ASUS45 KCYS 040210
RWRWY

WYOMING REGIONAL WEATHER ROUNDUP
NATIONAL WEATHER SERVICE CHEYENNE WY
800 PM MDT FRI JUL 03 2020

NOTE:  "FAIR" INDICATES FEW OR NO CLOUDS BELOW 12,000 FEET
WITH NO SIGNIFICANT WEATHER AND/OR OBSTRUCTIONS TO VISIBILITY.

WYZ001-040300-
...YELLOWSTONE NATIONAL PARK...

CITY           SKY/WX    TMP DP  RH WIND       PRES   REMARKS
LK YELLOWSTONE   N/A     67  39  35 W8        30.30S
W YELLOWSTONE  NOT AVBL

$$
WYZ002>013-054>058-071-098>099-040300-
...NORTHERN WYOMING...

CITY           SKY/WX    TMP DP  RH WIND       PRES   REMARKS
JACKSON        CLEAR     73  39  29 S7        30.19R
CODY           PTCLDY    72  49  44 N9        30.11R
GREYBULL       CLEAR     84  49  29 NW21      29.95S
WORLAND        PTCLDY    84  46  26 N8        29.96R
SHERIDAN       CLEAR     76  52  43 W17       30.04R
BUFFALO        CLEAR     77  47  34 NW23G38   30.07R
GILLETTE       CLEAR     84  55  36 E14       29.99F
HULETT         FAIR      79  55  44 SE7       30.02F
NEWCASTLE      FAIR      90  32  12 SE7       29.99F

$$
WYZ014>020-022>026-101>103-040300-
...CENTRAL WYOMING...

CITY           SKY/WX    TMP DP  RH WIND       PRES   REMARKS
BIG PINEY      CLEAR     75  34  22 NW13      30.25R
PINEDALE       CLEAR     73  32  21 W10       30.26R
DUBOIS         FAIR      73  28  19 W9        30.24R
LANDER         CLEAR     85  28  12 W9        30.07R
RIVERTON       CLEAR     86  27  11 SW12      30.08R
CASPER         CLEAR     84  32  15 SW5       30.05S
DOUGLAS        CLEAR     87  39  18 SE12      30.05S

$$
WYZ021-027>030-104>119-040300-
...SOUTHERN WYOMING...

CITY           SKY/WX    TMP DP  RH WIND       PRES   REMARKS
EVANSTON       PTCLDY    75  37  25 SW7       30.25R
KEMMERER       PTCLDY    73  28  19 W10       30.26S
FORT BRIDGER   NOT AVBL
ROCK SPRINGS   PTCLDY    82  27  13 W12       30.20R
DIXON          FAIR      77  31  18 S13       30.23S
RAWLINS        PTCLDY    82  25  12 SW10      30.21S
SARATOGA       FAIR      81  23  12 W8        30.24S
LARAMIE        PTCLDY    72  37  28 SE7       30.26S
CHEYENNE       PTCLDY    70  51  51 SE13G25   30.21R
TORRINGTON     MOCLDY    77  54  44 S29G40    30.03R
PINE BLUFFS    FAIR      68  54  60 S13       30.15F

$$



USA.gov is the U.S. government's official web portal to all federal, state and local government web resources and services.